Regional Weather Roundup
Issued by NWS

Home | Current Version | Previous Version | Graphics & Text | Print | Product List | Glossary Off
Versions: 1 2 3 4 5 6 7 8 9 10 11 12 13 14 15 16 17 18 19 20 21 22 23 24 25 26 27 28 29 30 31 32 33 34 35 36 37 38 39 40 41 42 43 44 45 46 47 48 49 50

000
ASUS43 KDMX 271207
RWRIA

WEATHER ROUNDUP FOR IOWA
NATIONAL WEATHER SERVICE DES MOINES IA
700 AM CDT WED MAY 27 2015

NOTE: "FAIR" INDICATES FEW OR NO CLOUDS BELOW 12,000 FEET WITH NO
SIGNIFICANT WEATHER AND/OR OBSTRUCTIONS TO VISIBILITY.

* - THESE STATIONS ARE NOT NWS STATIONS...THUS NOT UNDER NWS
QUALITY CONTROL.  THEY ALSO DO NOT REPORT WEATHER SUCH
AS PRECIPITATION OR FOG.

IAZ001>003-012>014-020>022-031>034-043>046-271300-
   NORTHWEST IOWA

CITY           SKY/WX    TMP DP  RH WIND       PRES   REMARKS
CARROLL *      SUNNY     55  54  94 W6        30.00R
CHEROKEE *     SUNNY     52  52 100 S3        29.99R FOG
DENISON *      SUNNY     52  52 100 CALM      29.99R FOG
LE MARS *      SUNNY     52  52 100 S3        30.01R
ORANGE CITY *  SUNNY     52  52 100 CALM      29.99R
SHELDON *      SUNNY     52  52 100 W6        29.98R
SIOUX CITY     SUNNY     54  50  86 CALM      30.00R
6HR MIN TEMP:  50; 6HR MAX TEMP:  56;

SPENCER        SUNNY     51  49  92 SW5       29.98R FOG
6HR MIN TEMP:  50; 6HR MAX TEMP:  57;

STORM LAKE *   SUNNY     55  52  88 W10       30.00R
$$

IAZ055>058-069>071-079>083-090>094-271300-
   SOUTHWEST IOWA

CITY           SKY/WX    TMP DP  RH WIND       PRES   REMARKS
ATLANTIC *     SUNNY     54  54 100 CALM      30.02R FOG
AUDUBON *      SUNNY     55  52  88 CALM      30.02R
COUNCIL BLFS * SUNNY     55  55 100 SW7       30.02S
CRESTON *      SUNNY     55  55 100 W7        30.02R
HARLAN  *      SUNNY     55  55 100 CALM      30.04R
LAMONI         SUNNY     60  55  83 W7        30.01R
6HR MIN TEMP:  58; 6HR MAX TEMP:  62;

RED OAK *      SUNNY     54  54 100 CALM      30.03R
SHENANDOAH *   SUNNY     57  55  94 SW6       30.04R
$$

IAZ047>049-059>061-072>074-084-271300-
   CENTRAL IOWA

CITY           SKY/WX    TMP DP  RH WIND       PRES   REMARKS
AMES           SUNNY     57  55  93 W6        29.99R
6HR MIN TEMP:  56; 6HR MAX TEMP:  60;

ANKENY *       SUNNY     59  57  94 W5        29.99R
CHARITON *     SUNNY     57  55  94 SW3       30.01R
DES MOINES     MOSUNNY   59  54  83 W6        30.00R
6HR MIN TEMP:  57; 6HR MAX TEMP:  62;

GRINNELL*      CLOUDY    59  57  94 W5        30.00R
KNOXVILLE *    MOSUNNY   59  55  88 SW5       29.99R
MARSHALLTOWN   MOSUNNY   58  57  97 W7        29.97R
6HR MIN TEMP:  57; 6HR MAX TEMP:  61;

PELLA *        SUNNY     60  60 100 W5        30.01R
PERRY *          N/A     58  55  91 W8        30.00R
$$

IAZ004>006-015-016-023>025-035-036-271300-
   NORTH CENTRAL IOWA

CITY           SKY/WX    TMP DP  RH WIND       PRES   REMARKS
ALGONA *       SUNNY     57  57 100 W9        29.98R FOG
CLARION *      SUNNY     55 N/A N/A W8        29.98R
ESTHERVILLE    PTSUNNY   53  52  96 SW8       29.96R FOG
6HR MIN TEMP:  52; 6HR MAX TEMP:  56;

FORT DODGE *   MOSUNNY   55  54  94 W3        29.99R
MASON CITY     MOSUNNY   57  55  93 W10       29.97R
6HR MIN TEMP:  54; 6HR MAX TEMP:  58; 6HR PCP:  0.01;

FOREST CITY *  SUNNY     55  55 100 CALM      29.97R
IOWA FALLS *     N/A     57  55  94 W10       29.99R
$$

IAZ007>011-017>019-026>030-037>042-050>054-066-271300-
   NORTHEAST IOWA

CITY           SKY/WX    TMP DP  RH WIND       PRES   REMARKS
CEDAR RAPIDS   MOSUNNY   59  59 100 W8        29.96R
6HR MIN TEMP:  56; 6HR MAX TEMP:  61; 6HR PCP:  0.02;

CHARLES CITY * CLOUDY    57  57 100 W7        29.96R FOG
CLINTON *      MOSUNNY   63  57  82 W10       29.96R
DECORAH *      PTSUNNY   57  57 100 CALM      29.93R
DUBUQUE        MOSUNNY   60  57  89 W8        29.92R
6HR MIN TEMP:  58; 6HR MAX TEMP:  61; 6HR PCP:  0.07;

MONTICELLO *   PTSUNNY   59  59 100 W10       29.94R
OELWEIN *      CLOUDY    59  57  94 W7        29.96R
WATERLOO       PTSUNNY   58  56  93 W5        29.95R
6HR MIN TEMP:  57; 6HR MAX TEMP:  61;

$$

IAZ064-065-067-068-078-271300-
   EAST CENTRAL IOWA

CITY           SKY/WX    TMP DP  RH WIND       PRES   REMARKS
DAVENPORT      CLOUDY    62  59  90 W12       29.95S
6HR MIN TEMP:  61; 6HR MAX TEMP:  64;

IOWA CITY      PTSUNNY   60  59  96 SW6       29.98R
6HR MIN TEMP:  60; 6HR MAX TEMP:  62; 6HR PCP:  0.02;

MT. PLEASANT * MOSUNNY   60  60  99 W6        29.98S
MUSCATINE *    PTSUNNY   63  59  88 SW8       29.97R
QUAD CITIES    MOSUNNY   62  58  86 SW8       29.95R
6HR MIN TEMP:  61; 6HR MAX TEMP:  65;

$$

IAZ062-063-075>077-085>089-095>099-271300-
   SOUTHEAST IOWA

CITY           SKY/WX    TMP DP  RH WIND       PRES   REMARKS
BURLINGTON     SUNNY     63  61  93 W7        29.96S
6HR MIN TEMP:  61; 6HR MAX TEMP:  64;

FAIRFIELD *    SUNNY     59  57  94 SW8       29.99R
FORT MADISON * SUNNY     63  61  94 W10       29.98S
KEOKUK *       SUNNY     64  61  88 W7        29.97S
OSKALOOSA *      N/A     58  56  93 W9        30.00R
CENTERVILLE *  MOSUNNY   57  57 100 W5        30.03R
OTTUMWA        SUNNY     59  57  93 W6        29.99R
6HR MIN TEMP:  57; 6HR MAX TEMP:  61;

WASHINGTON *   MOSUNNY   61  59  94 W8        29.99R
$$

ABBREVIATIONS USED IN REMARKS
   TC - TEMPERATURES IN CELSIUS
  WCI - WIND CHILL INDEX
   HX - HEAT INDEX
  VSB - VISIBILITY
$$



USA.gov is the U.S. government's official web portal to all federal, state and local government web resources and services.